Time,TemperatureF,DewpointF,PressureIn,WindDirection,WindDirectionDegrees,WindSpeedMPH,WindSpeedGustMPH,Humidity,HourlyPrecipIn,Conditions,Clouds,dailyrainin,SoftwareType,DateUTC
2013-02-23 00:01:00,31.9,29.3,30.13,NNW,331,0.0,0.0,90,0.00,,---,0.15,VWS V13.01,2013-02-23 06:01:00,
2013-02-23 00:06:00,31.9,29.3,30.12,NNW,330,0.0,0.0,90,0.00,,---,0.00,VWS V13.01,2013-02-23 06:06:00,
2013-02-23 00:11:00,31.8,29.2,30.13,NNW,330,0.0,0.0,90,0.00,,---,0.00,VWS V13.01,2013-02-23 06:11:00,
2013-02-23 00:16:00,31.8,29.2,30.12,NNW,329,0.0,2.0,90,0.00,,---,0.00,VWS V13.01,2013-02-23 06:16:00,
2013-02-23 00:21:00,31.7,29.1,30.12,NNW,329,0.0,2.0,90,0.00,,---,0.00,VWS V13.01,2013-02-23 06:21:00,
2013-02-23 00:26:00,31.7,29.1,30.12,NNW,328,0.0,2.0,90,0.00,,---,0.00,VWS V13.01,2013-02-23 06:26:00,
2013-02-23 00:31:00,31.7,29.1,30.13,NW,316,0.0,3.0,90,0.00,,---,0.00,VWS V13.01,2013-02-23 06:31:00,
2013-02-23 00:36:00,31.8,29.2,30.13,NW,319,0.0,0.0,90,0.00,,---,0.00,VWS V13.01,2013-02-23 06:36:00,
2013-02-23 00:41:00,31.8,29.2,30.13,NW,320,0.0,0.0,90,0.00,,---,0.00,VWS V13.01,2013-02-23 06:41:00,
2013-02-23 00:46:00,31.8,29.2,30.13,NW,319,0.0,1.0,90,0.00,,---,0.00,VWS V13.01,2013-02-23 06:46:00,
2013-02-23 00:51:00,31.8,29.2,30.13,NNW,337,0.0,4.0,90,0.00,,---,0.00,VWS V13.01,2013-02-23 06:51:00,
2013-02-23 00:56:00,31.8,29.2,30.13,NW,319,0.0,4.0,90,0.00,,---,0.00,VWS V13.01,2013-02-23 06:56:00,
2013-02-23 01:01:00,31.8,29.2,30.13,NW,318,0.0,4.0,90,0.00,,---,0.00,VWS V13.01,2013-02-23 07:01:00,
2013-02-23 01:06:00,31.8,28.9,30.13,NW,313,0.0,1.0,89,0.00,,---,0.00,VWS V13.01,2013-02-23 07:06:00,
2013-02-23 01:11:00,31.8,28.9,30.13,WNW,282,0.0,3.0,89,0.00,,---,0.00,VWS V13.01,2013-02-23 07:11:00,
2013-02-23 01:16:00,31.7,28.8,30.13,NNW,344,1.0,3.0,89,0.00,,---,0.00,VWS V13.01,2013-02-23 07:16:00,
2013-02-23 01:21:00,31.6,28.7,30.12,North,5,0.0,3.0,89,0.00,,---,0.00,VWS V13.01,2013-02-23 07:21:00,
2013-02-23 01:27:00,31.6,28.7,30.12,NW,325,0.0,5.0,89,0.00,,---,0.00,VWS V13.01,2013-02-23 07:27:00,
2013-02-23 01:32:00,31.5,28.6,30.12,NW,311,0.0,5.0,89,0.00,,---,0.00,VWS V13.01,2013-02-23 07:32:00,
2013-02-23 01:37:00,31.5,28.6,30.12,NW,313,0.0,0.0,89,0.00,,---,0.00,VWS V13.01,2013-02-23 07:37:00,
2013-02-23 01:42:00,31.4,28.5,30.12,NW,314,0.0,2.0,89,0.00,,---,0.00,VWS V13.01,2013-02-23 07:42:00,
2013-02-23 01:47:00,31.3,28.4,30.12,NW,321,0.0,2.0,89,0.00,,---,0.00,VWS V13.01,2013-02-23 07:47:00,
2013-02-23 01:52:00,31.2,28.3,30.11,NNW,327,0.0,2.0,89,0.00,,---,0.00,VWS V13.01,2013-02-23 07:52:00,
2013-02-23 01:57:00,31.2,28.3,30.11,NNW,327,0.0,2.0,89,0.00,,---,0.00,VWS V13.01,2013-02-23 07:57:00,
2013-02-23 02:02:00,31.1,28.2,30.12,NW,321,0.0,2.0,89,0.00,,---,0.00,VWS V13.01,2013-02-23 08:02:00,
2013-02-23 02:07:00,31.0,28.1,30.12,NW,323,0.0,0.0,89,0.00,,---,0.00,VWS V13.01,2013-02-23 08:07:00,
2013-02-23 02:12:00,31.0,28.1,30.11,NW,317,0.0,3.0,89,0.00,,---,0.00,VWS V13.01,2013-02-23 08:12:00,
2013-02-23 02:17:00,30.9,28.0,30.11,NW,317,0.0,3.0,89,0.00,,---,0.00,VWS V13.01,2013-02-23 08:17:00,
2013-02-23 02:22:00,30.8,28.0,30.10,NW,326,0.0,3.0,89,0.00,,---,0.00,VWS V13.01,2013-02-23 08:22:00,
2013-02-23 02:27:00,30.8,28.0,30.10,NW,318,0.0,4.0,89,0.00,,---,0.00,VWS V13.01,2013-02-23 08:27:00,
2013-02-23 02:32:00,30.8,28.0,30.09,NW,319,0.0,4.0,89,0.00,,---,0.00,VWS V13.01,2013-02-23 08:32:00,
2013-02-23 02:37:00,30.7,27.9,30.09,NW,318,0.0,0.0,89,0.00,,---,0.00,VWS V13.01,2013-02-23 08:37:00,
2013-02-23 02:43:00,30.7,27.9,30.09,NW,310,0.0,0.0,89,0.00,,---,0.00,VWS V13.01,2013-02-23 08:43:00,
2013-02-23 02:48:00,30.7,27.9,30.09,NW,310,0.0,0.0,89,0.00,,---,0.00,VWS V13.01,2013-02-23 08:48:00,
2013-02-23 02:53:00,30.6,27.8,30.08,NW,310,0.0,0.0,89,0.00,,---,0.00,VWS V13.01,2013-02-23 08:53:00,
2013-02-23 02:58:00,30.5,27.6,30.09,NW,310,0.0,0.0,89,0.00,,---,0.00,VWS V13.01,2013-02-23 08:58:00,
2013-02-23 03:03:00,30.5,27.6,30.09,NW,310,0.0,0.0,89,0.00,,---,0.00,VWS V13.01,2013-02-23 09:03:00,
2013-02-23 03:08:00,30.4,27.5,30.08,NW,310,0.0,0.0,89,0.00,,---,0.00,VWS V13.01,2013-02-23 09:08:00,
2013-02-23 03:13:00,30.3,27.5,30.08,NW,310,0.0,0.0,89,0.00,,---,0.00,VWS V13.01,2013-02-23 09:13:00,
2013-02-23 03:18:00,30.3,27.5,30.08,NW,310,0.0,0.0,89,0.00,,---,0.00,VWS V13.01,2013-02-23 09:18:00,
2013-02-23 03:23:00,30.1,27.3,30.08,NW,310,0.0,0.0,89,0.00,,---,0.00,VWS V13.01,2013-02-23 09:23:00,
2013-02-23 03:28:00,30.1,27.3,30.08,NW,310,0.0,1.0,89,0.00,,---,0.00,VWS V13.01,2013-02-23 09:28:00,
2013-02-23 03:33:00,30.0,27.2,30.08,NW,310,0.0,1.0,89,0.00,,---,0.00,VWS V13.01,2013-02-23 09:33:00,
2013-02-23 03:38:00,29.9,27.1,30.08,NW,310,0.0,0.0,89,0.00,,---,0.00,VWS V13.01,2013-02-23 09:38:00,
2013-02-23 03:43:00,29.9,27.1,30.07,NW,310,0.0,0.0,89,0.00,,---,0.00,VWS V13.01,2013-02-23 09:43:00,
2013-02-23 03:49:00,29.8,27.0,30.07,NW,310,0.0,0.0,89,0.00,,---,0.00,VWS V13.01,2013-02-23 09:49:00,
2013-02-23 03:54:00,29.7,26.9,30.07,NW,310,0.0,0.0,89,0.00,,---,0.00,VWS V13.01,2013-02-23 09:54:00,
2013-02-23 03:59:00,29.7,26.9,30.07,NW,310,0.0,0.0,89,0.00,,---,0.00,VWS V13.01,2013-02-23 09:59:00,
2013-02-23 04:04:00,29.6,26.8,30.07,NW,310,0.0,0.0,89,0.00,,---,0.00,VWS V13.01,2013-02-23 10:04:00,
2013-02-23 04:09:00,29.5,26.7,30.07,NW,310,0.0,0.0,89,0.00,,---,0.00,VWS V13.01,2013-02-23 10:09:00,
2013-02-23 04:14:00,29.5,26.7,30.07,NW,310,0.0,0.0,89,0.00,,---,0.00,VWS V13.01,2013-02-23 10:14:00,
2013-02-23 04:19:00,29.4,26.6,30.07,NW,310,0.0,0.0,89,0.00,,---,0.00,VWS V13.01,2013-02-23 10:19:00,
2013-02-23 04:24:00,29.4,26.6,30.08,NW,310,0.0,0.0,89,0.00,,---,0.00,VWS V13.01,2013-02-23 10:24:00,
2013-02-23 04:29:00,29.3,26.5,30.08,NW,310,0.0,0.0,89,0.00,,---,0.00,VWS V13.01,2013-02-23 10:29:00,
2013-02-23 04:34:00,29.3,26.5,30.08,NW,310,0.0,1.0,89,0.00,,---,0.00,VWS V13.01,2013-02-23 10:34:00,
2013-02-23 04:39:00,29.2,26.4,30.08,NW,310,0.0,0.0,89,0.00,,---,0.00,VWS V13.01,2013-02-23 10:39:00,
2013-02-23 04:44:00,29.2,26.4,30.08,NW,310,0.0,0.0,89,0.00,,---,0.00,VWS V13.01,2013-02-23 10:44:00,
2013-02-23 04:49:00,29.2,26.4,30.08,NW,309,0.0,0.0,89,0.00,,---,0.00,VWS V13.01,2013-02-23 10:49:00,
2013-02-23 04:54:00,29.3,26.5,30.08,NW,309,0.0,0.0,89,0.00,,---,0.00,VWS V13.01,2013-02-23 10:54:00,
2013-02-23 04:59:00,29.3,26.5,30.08,NW,309,0.0,0.0,89,0.00,,---,0.00,VWS V13.01,2013-02-23 10:59:00,
2013-02-23 05:04:00,29.3,26.5,30.07,NW,309,0.0,0.0,89,0.00,,---,0.00,VWS V13.01,2013-02-23 11:04:00,
2013-02-23 05:09:00,29.3,26.5,30.07,NW,310,0.0,0.0,89,0.00,,---,0.00,VWS V13.01,2013-02-23 11:09:00,
2013-02-23 05:14:00,29.3,26.5,30.08,NW,309,0.0,0.0,89,0.00,,---,0.00,VWS V13.01,2013-02-23 11:14:00,
2013-02-23 05:19:00,29.3,26.7,30.08,NW,310,0.0,0.0,90,0.00,,---,0.00,VWS V13.01,2013-02-23 11:19:00,
2013-02-23 05:24:00,29.3,26.5,30.08,NW,310,0.0,0.0,89,0.00,,---,0.00,VWS V13.01,2013-02-23 11:24:00,
2013-02-23 05:30:00,29.3,26.5,30.08,NW,310,0.0,0.0,89,0.00,,---,0.00,VWS V13.01,2013-02-23 11:30:00,
2013-02-23 05:34:00,29.3,26.5,30.08,NW,310,0.0,0.0,89,0.00,,---,0.00,VWS V13.01,2013-02-23 11:34:00,
2013-02-23 05:40:00,29.2,26.4,30.08,NW,309,0.0,0.0,89,0.00,,---,0.00,VWS V13.01,2013-02-23 11:40:00,
2013-02-23 05:45:00,29.2,26.6,30.08,NW,309,0.0,0.0,90,0.00,,---,0.00,VWS V13.01,2013-02-23 11:45:00,
2013-02-23 05:50:00,29.1,26.5,30.08,NW,309,0.0,0.0,90,0.00,,---,0.00,VWS V13.01,2013-02-23 11:50:00,
2013-02-23 05:55:00,29.0,26.4,30.08,NW,309,0.0,0.0,90,0.00,,---,0.00,VWS V13.01,2013-02-23 11:55:00,
2013-02-23 06:00:00,28.9,26.3,30.08,NW,309,0.0,0.0,90,0.00,,---,0.00,VWS V13.01,2013-02-23 12:00:00,
2013-02-23 06:05:00,28.8,26.2,30.08,NW,309,0.0,0.0,90,0.00,,---,0.00,VWS V13.01,2013-02-23 12:05:00,
2013-02-23 06:10:00,28.8,26.2,30.07,NW,309,0.0,0.0,90,0.00,,---,0.00,VWS V13.01,2013-02-23 12:10:00,
2013-02-23 06:15:00,28.7,26.1,30.07,NW,309,0.0,0.0,90,0.00,,---,0.00,VWS V13.01,2013-02-23 12:15:00,
2013-02-23 06:20:00,28.7,26.1,30.07,NW,309,0.0,0.0,90,0.00,,---,0.00,VWS V13.01,2013-02-23 12:20:00,
2013-02-23 06:25:00,28.6,26.0,30.06,NW,309,0.0,0.0,90,0.00,,---,0.00,VWS V13.01,2013-02-23 12:25:00,
2013-02-23 06:30:00,28.5,26.0,30.06,NW,309,0.0,0.0,90,0.00,,---,0.00,VWS V13.01,2013-02-23 12:30:00,
2013-02-23 06:35:00,28.5,26.0,30.06,NW,309,0.0,0.0,90,0.00,,---,0.00,VWS V13.01,2013-02-23 12:35:00,
2013-02-23 06:40:00,28.4,25.9,30.06,NW,309,0.0,0.0,90,0.00,,---,0.00,VWS V13.01,2013-02-23 12:40:00,
2013-02-23 06:45:00,28.3,25.8,30.07,NW,309,0.0,0.0,90,0.00,,---,0.00,VWS V13.01,2013-02-23 12:45:00,
2013-02-23 06:50:00,28.2,25.6,30.07,NW,309,0.0,0.0,90,0.00,,---,0.00,VWS V13.01,2013-02-23 12:50:00,
2013-02-23 06:55:00,28.1,25.3,30.07,NW,309,0.0,0.0,89,0.00,,---,0.00,VWS V13.01,2013-02-23 12:55:00,
2013-02-23 07:00:00,28.0,25.5,30.07,NW,309,0.0,0.0,90,0.00,,---,0.00,VWS V13.01,2013-02-23 13:00:00,
2013-02-23 07:05:00,27.9,25.4,30.07,NW,309,0.0,0.0,90,0.00,,---,0.00,VWS V13.01,2013-02-23 13:05:00,
2013-02-23 07:10:00,27.9,25.4,30.07,NW,309,0.0,0.0,90,0.00,,---,0.00,VWS V13.01,2013-02-23 13:10:00,
2013-02-23 07:15:00,27.8,25.2,30.07,NW,309,0.0,0.0,90,0.00,,---,0.00,VWS V13.01,2013-02-23 13:15:00,
2013-02-23 07:20:00,27.7,25.2,30.08,NW,309,0.0,0.0,90,0.00,,---,0.00,VWS V13.01,2013-02-23 13:20:00,
2013-02-23 07:25:00,27.6,24.8,30.08,NW,309,0.0,0.0,89,0.00,,---,0.00,VWS V13.01,2013-02-23 13:25:00,
2013-02-23 07:30:00,27.6,25.1,30.08,NW,309,0.0,0.0,90,0.00,,---,0.00,VWS V13.01,2013-02-23 13:30:00,
2013-02-23 07:35:00,27.6,25.1,30.08,NW,309,0.0,0.0,90,0.00,,---,0.00,VWS V13.01,2013-02-23 13:35:00,
2013-02-23 07:41:00,27.7,25.2,30.09,NW,309,0.0,0.0,90,0.00,,---,0.00,VWS V13.01,2013-02-23 13:41:00,
2013-02-23 07:46:00,27.7,25.2,30.09,NW,309,0.0,0.0,90,0.00,,---,0.00,VWS V13.01,2013-02-23 13:46:00,
2013-02-23 07:51:00,27.9,25.4,30.09,NW,309,0.0,0.0,90,0.00,,---,0.00,VWS V13.01,2013-02-23 13:51:00,
2013-02-23 07:56:00,28.2,25.9,30.09,NW,309,0.0,0.0,91,0.00,,---,0.00,VWS V13.01,2013-02-23 13:56:00,
2013-02-23 08:01:00,28.5,26.2,30.09,NW,309,0.0,0.0,91,0.00,,---,0.00,VWS V13.01,2013-02-23 14:01:00,
2013-02-23 08:06:00,28.7,26.4,30.09,NW,309,0.0,0.0,91,0.00,,---,0.00,VWS V13.01,2013-02-23 14:06:00,
2013-02-23 08:11:00,29.0,26.7,30.10,NW,309,0.0,2.0,91,0.00,,---,0.00,VWS V13.01,2013-02-23 14:11:00,
2013-02-23 08:16:00,29.4,27.1,30.10,NW,309,0.0,2.0,91,0.00,,---,0.00,VWS V13.01,2013-02-23 14:16:00,
2013-02-23 08:21:00,29.7,27.4,30.10,NW,309,0.0,2.0,91,0.00,,---,0.00,VWS V13.01,2013-02-23 14:21:00,
2013-02-23 08:26:00,29.9,27.9,30.10,NW,309,0.0,2.0,92,0.00,,---,0.00,VWS V13.01,2013-02-23 14:26:00,
2013-02-23 08:31:00,30.1,27.8,30.10,NW,309,0.0,2.0,91,0.00,,---,0.00,VWS V13.01,2013-02-23 14:31:00,
2013-02-23 08:36:00,30.3,28.0,30.10,NW,309,0.0,0.0,91,0.00,,---,0.00,VWS V13.01,2013-02-23 14:36:00,
2013-02-23 08:41:00,30.5,28.2,30.11,NW,309,0.0,0.0,91,0.00,,---,0.00,VWS V13.01,2013-02-23 14:41:00,
2013-02-23 08:46:00,30.6,28.6,30.11,NW,309,0.0,2.0,92,0.00,,---,0.00,VWS V13.01,2013-02-23 14:46:00,
2013-02-23 08:51:00,30.8,28.8,30.11,NW,309,0.0,2.0,92,0.00,,---,0.00,VWS V13.01,2013-02-23 14:51:00,
2013-02-23 08:56:00,31.0,29.0,30.11,NW,309,0.0,2.0,92,0.00,,---,0.00,VWS V13.01,2013-02-23 14:56:00,
2013-02-23 09:01:00,31.1,29.0,30.11,NW,309,0.0,2.0,92,0.00,,---,0.00,VWS V13.01,2013-02-23 15:01:00,
2013-02-23 09:06:00,31.3,29.2,30.11,NW,309,0.0,0.0,92,0.00,,---,0.00,VWS V13.01,2013-02-23 15:06:00,
2013-02-23 09:11:00,31.4,29.4,30.10,NW,309,0.0,0.0,92,0.00,,---,0.00,VWS V13.01,2013-02-23 15:11:00,
2013-02-23 09:16:00,31.5,29.5,30.10,NNE,23,0.0,4.0,92,0.00,,---,0.00,VWS V13.01,2013-02-23 15:16:00,
2013-02-23 09:21:00,31.6,29.3,30.10,NE,51,0.0,4.0,91,0.00,,---,0.00,VWS V13.01,2013-02-23 15:21:00,
2013-02-23 09:26:00,31.8,29.5,30.10,NE,46,2.0,5.0,91,0.00,,---,0.00,VWS V13.01,2013-02-23 15:26:00,
2013-02-23 09:31:00,32.0,29.7,30.10,NE,46,3.0,5.0,91,0.00,,---,0.00,VWS V13.01,2013-02-23 15:31:00,
2013-02-23 09:36:00,32.3,29.7,30.10,ENE,59,0.0,0.0,90,0.00,,---,0.00,VWS V13.01,2013-02-23 15:36:00,
2013-02-23 09:41:00,32.5,29.9,30.10,ENE,69,1.0,4.0,90,0.00,,---,0.00,VWS V13.01,2013-02-23 15:41:00,
2013-02-23 09:46:00,32.8,29.9,30.10,East,87,0.0,4.0,89,0.00,,---,0.00,VWS V13.01,2013-02-23 15:46:00,
2013-02-23 09:51:00,33.1,29.9,30.10,NE,51,3.0,5.0,88,0.00,,---,0.00,VWS V13.01,2013-02-23 15:51:00,
2013-02-23 09:56:00,33.4,30.0,30.11,NE,51,0.0,5.0,87,0.00,,---,0.00,VWS V13.01,2013-02-23 15:56:00,
2013-02-23 10:01:00,33.7,30.0,30.11,NE,51,0.0,5.0,86,0.00,,---,0.00,VWS V13.01,2013-02-23 16:01:00,
2013-02-23 10:06:00,34.0,30.0,30.10,ENE,60,0.0,3.0,85,0.00,,---,0.00,VWS V13.01,2013-02-23 16:06:00,
2013-02-23 10:11:00,34.4,30.1,30.10,ENE,60,0.0,3.0,84,0.00,,---,0.00,VWS V13.01,2013-02-23 16:11:00,
2013-02-23 10:16:00,34.6,30.0,30.10,ENE,61,0.0,3.0,83,0.00,,---,0.00,VWS V13.01,2013-02-23 16:16:00,
2013-02-23 10:21:00,34.9,30.0,30.10,ENE,62,0.0,3.0,82,0.00,,---,0.00,VWS V13.01,2013-02-23 16:21:00,
2013-02-23 10:26:00,35.3,30.1,30.10,ENE,65,0.0,3.0,81,0.00,,---,0.00,VWS V13.01,2013-02-23 16:26:00,
2013-02-23 10:31:00,35.7,30.1,30.10,ENE,65,0.0,3.0,80,0.00,,---,0.00,VWS V13.01,2013-02-23 16:31:00,
2013-02-23 10:36:00,35.9,29.7,30.10,ENE,65,0.0,0.0,78,0.00,,---,0.00,VWS V13.01,2013-02-23 16:36:00,
2013-02-23 10:41:00,36.1,29.6,30.10,NW,304,0.0,3.0,77,0.00,,---,0.00,VWS V13.01,2013-02-23 16:41:00,
2013-02-23 10:46:00,36.5,30.0,30.11,NNW,336,0.0,3.0,77,0.00,,---,0.00,VWS V13.01,2013-02-23 16:46:00,
2013-02-23 10:52:00,36.9,30.4,30.11,SW,217,0.0,7.0,77,0.00,,---,0.00,VWS V13.01,2013-02-23 16:52:00,
2013-02-23 10:57:00,37.4,31.2,30.11,SW,222,4.0,7.0,78,0.00,,---,0.00,VWS V13.01,2013-02-23 16:57:00,
2013-02-23 11:02:00,37.8,30.6,30.11,SW,223,0.0,7.0,75,0.00,,---,0.00,VWS V13.01,2013-02-23 17:02:00,
2013-02-23 11:07:00,38.3,30.8,30.10,NW,315,1.0,3.0,74,0.00,,---,0.00,VWS V13.01,2013-02-23 17:07:00,
2013-02-23 11:12:00,38.9,31.0,30.10,SSW,195,0.0,6.0,73,0.00,,---,0.00,VWS V13.01,2013-02-23 17:12:00,
2013-02-23 11:16:00,39.2,31.3,30.11,SSE,150,0.0,6.0,73,0.00,,---,0.00,VWS V13.01,2013-02-23 17:16:00,
2013-02-23 11:21:00,38.9,31.0,30.10,NNE,33,2.0,6.0,73,0.00,,---,0.00,VWS V13.01,2013-02-23 17:21:00,
2013-02-23 11:27:00,39.0,29.7,30.10,NE,41,0.0,6.0,69,0.00,,---,0.00,VWS V13.01,2013-02-23 17:27:00,
2013-02-23 11:32:00,39.5,30.9,30.10,WNW,291,0.0,6.0,71,0.00,,---,0.00,VWS V13.01,2013-02-23 17:32:00,
2013-02-23 11:37:00,39.8,30.5,30.09,SW,225,4.0,6.0,69,0.01,,---,0.01,VWS V13.01,2013-02-23 17:37:00,
2013-02-23 11:42:00,39.8,30.8,30.09,SW,223,0.0,6.0,70,0.02,,---,0.02,VWS V13.01,2013-02-23 17:42:00,
2013-02-23 11:47:00,40.8,32.1,30.09,SW,223,0.0,6.0,71,0.03,,---,0.03,VWS V13.01,2013-02-23 17:47:00,
2013-02-23 11:52:00,40.7,31.0,30.08,NW,321,0.0,6.0,68,0.04,,---,0.04,VWS V13.01,2013-02-23 17:52:00,
2013-02-23 11:57:00,40.5,30.4,30.08,NE,45,0.0,6.0,67,0.05,,---,0.05,VWS V13.01,2013-02-23 17:57:00,
2013-02-23 12:02:00,41.2,32.5,30.08,NE,38,2.0,6.0,71,0.06,,---,0.06,VWS V13.01,2013-02-23 18:02:00,
2013-02-23 12:07:00,41.6,32.2,30.07,North,5,0.0,2.0,69,0.06,,---,0.06,VWS V13.01,2013-02-23 18:07:00,
2013-02-23 12:12:00,42.4,32.6,30.07,NW,314,0.0,4.0,68,0.07,,---,0.07,VWS V13.01,2013-02-23 18:12:00,
2013-02-23 12:17:00,42.0,31.9,30.07,NW,314,0.0,4.0,67,0.08,,---,0.08,VWS V13.01,2013-02-23 18:17:00,
2013-02-23 12:22:00,42.4,33.0,30.07,WNW,294,0.0,4.0,69,0.08,,---,0.08,VWS V13.01,2013-02-23 18:22:00,
2013-02-23 12:27:00,42.5,32.7,30.06,NNW,345,0.0,4.0,68,0.09,,---,0.09,VWS V13.01,2013-02-23 18:27:00,
2013-02-23 12:32:00,42.3,32.5,30.06,WNW,294,0.0,5.0,68,0.10,,---,0.10,VWS V13.01,2013-02-23 18:32:00,
2013-02-23 12:37:00,42.4,33.3,30.05,West,271,3.0,3.0,70,0.09,,---,0.10,VWS V13.01,2013-02-23 18:37:00,
2013-02-23 12:42:00,42.3,32.9,30.05,NW,318,0.0,5.0,69,0.10,,---,0.11,VWS V13.01,2013-02-23 18:42:00,
2013-02-23 12:47:00,42.8,33.0,30.05,NW,321,2.0,5.0,68,0.10,,---,0.11,VWS V13.01,2013-02-23 18:47:00,
2013-02-23 12:52:00,42.6,33.2,30.05,NW,305,0.0,6.0,69,0.11,,---,0.12,VWS V13.01,2013-02-23 18:52:00,
2013-02-23 12:57:00,43.2,33.4,30.04,NW,317,1.0,7.0,68,0.11,,---,0.12,VWS V13.01,2013-02-23 18:57:00,
2013-02-23 13:02:00,43.1,32.9,30.04,NW,311,0.0,9.0,67,0.12,,---,0.13,VWS V13.01,2013-02-23 19:02:00,
2013-02-23 13:07:00,43.3,33.8,30.04,NNW,328,1.0,4.0,69,0.07,,---,0.13,VWS V13.01,2013-02-23 19:07:00,
2013-02-23 13:12:00,43.4,33.6,30.04,WNW,291,1.0,7.0,68,0.08,,---,0.14,VWS V13.01,2013-02-23 19:12:00,
2013-02-23 13:17:00,43.8,33.6,30.04,West,276,0.0,7.0,67,0.08,,---,0.14,VWS V13.01,2013-02-23 19:17:00,
2013-02-23 13:22:00,44.8,34.5,30.04,West,271,2.0,7.0,67,0.08,,---,0.15,VWS V13.01,2013-02-23 19:22:00,
2013-02-23 13:27:00,45.0,35.1,30.03,NNW,336,6.0,7.0,68,0.09,,---,0.15,VWS V13.01,2013-02-23 19:27:00,
2013-02-23 13:32:00,44.4,34.5,30.04,NNW,331,1.0,7.0,68,0.10,,---,0.16,VWS V13.01,2013-02-23 19:32:00,
2013-02-23 13:37:00,45.2,34.9,30.03,NW,314,2.0,2.0,67,0.06,,---,0.16,VWS V13.01,2013-02-23 19:37:00,
2013-02-23 13:42:00,44.7,32.9,30.03,NNW,332,2.0,9.0,63,0.06,,---,0.16,VWS V13.01,2013-02-23 19:42:00,
2013-02-23 13:47:00,44.6,32.8,30.03,SW,236,0.0,9.0,63,0.07,,---,0.17,VWS V13.01,2013-02-23 19:47:00,
2013-02-23 13:52:00,45.0,33.6,30.03,NW,308,5.0,9.0,64,0.07,,---,0.17,VWS V13.01,2013-02-23 19:52:00,
2013-02-23 13:57:00,44.5,32.7,30.04,NNW,334,4.0,9.0,63,0.08,,---,0.18,VWS V13.01,2013-02-23 19:57:00,
2013-02-23 14:02:00,45.3,33.9,30.03,SW,218,6.0,12.0,64,0.08,,---,0.18,VWS V13.01,2013-02-23 20:02:00,
2013-02-23 14:07:00,45.9,33.6,30.03,NNW,329,7.0,7.0,62,0.05,,---,0.18,VWS V13.01,2013-02-23 20:07:00,
2013-02-23 14:12:00,45.7,32.6,30.03,NNW,343,6.0,11.0,60,0.06,,---,0.19,VWS V13.01,2013-02-23 20:12:00,
2013-02-23 14:17:00,46.5,33.8,30.04,NW,318,3.0,11.0,61,0.06,,---,0.19,VWS V13.01,2013-02-23 20:17:00,
2013-02-23 14:22:00,46.7,34.0,30.04,NW,319,4.0,11.0,61,0.06,,---,0.19,VWS V13.01,2013-02-23 20:22:00,
2013-02-23 14:27:00,46.4,32.9,30.03,NNW,327,5.0,11.0,59,0.07,,---,0.20,VWS V13.01,2013-02-23 20:27:00,
2013-02-23 14:32:00,45.9,32.8,30.03,NNW,334,0.0,11.0,60,0.07,,---,0.20,VWS V13.01,2013-02-23 20:32:00,
2013-02-23 14:37:00,46.0,32.9,30.03,NW,321,0.0,7.0,60,0.04,,---,0.20,VWS V13.01,2013-02-23 20:37:00,
2013-02-23 14:42:00,46.2,33.1,30.02,NW,310,2.0,10.0,60,0.04,,---,0.20,VWS V13.01,2013-02-23 20:42:00,
2013-02-23 14:47:00,46.0,32.1,30.02,NNW,327,5.0,10.0,58,0.05,,---,0.21,VWS V13.01,2013-02-23 20:47:00,
2013-02-23 14:52:00,46.3,33.2,30.02,NW,323,9.0,16.0,60,0.05,,---,0.21,VWS V13.01,2013-02-23 20:52:00,
2013-02-23 14:57:00,46.4,32.0,30.02,NNE,18,0.0,16.0,57,0.05,,---,0.21,VWS V13.01,2013-02-23 20:57:00,
2013-02-23 15:02:00,46.1,30.9,30.01,NW,324,0.0,16.0,55,0.05,,---,0.21,VWS V13.01,2013-02-23 21:02:00,
2013-02-23 15:07:00,45.6,31.3,30.01,NW,325,0.0,4.0,57,0.03,,---,0.21,VWS V13.01,2013-02-23 21:07:00,
2013-02-23 15:12:00,45.8,31.5,30.01,NNW,344,0.0,11.0,57,0.03,,---,0.21,VWS V13.01,2013-02-23 21:12:00,
2013-02-23 15:17:00,46.2,31.8,30.00,NNW,329,0.0,11.0,57,0.03,,---,0.21,VWS V13.01,2013-02-23 21:17:00,
2013-02-23 15:22:00,45.9,31.1,30.00,NW,318,3.0,11.0,56,0.04,,---,0.22,VWS V13.01,2013-02-23 21:22:00,
2013-02-23 15:27:00,45.6,30.4,30.00,NNW,335,3.0,11.0,55,0.04,,---,0.22,VWS V13.01,2013-02-23 21:27:00,
2013-02-23 15:32:00,45.9,31.5,29.99,NW,314,1.0,11.0,57,0.04,,---,0.22,VWS V13.01,2013-02-23 21:32:00,
2013-02-23 15:37:00,46.1,30.4,29.99,NW,317,0.0,7.0,54,0.02,,---,0.22,VWS V13.01,2013-02-23 21:37:00,
2013-02-23 15:42:00,46.1,31.3,29.99,NW,307,0.0,7.0,56,0.02,,---,0.22,VWS V13.01,2013-02-23 21:42:00,
2013-02-23 15:47:00,46.0,30.3,29.98,NNW,346,0.0,7.0,54,0.02,,---,0.22,VWS V13.01,2013-02-23 21:47:00,
2013-02-23 15:52:00,45.8,29.7,29.99,NW,305,4.0,7.0,53,0.02,,---,0.22,VWS V13.01,2013-02-23 21:52:00,
2013-02-23 15:58:00,46.3,30.6,29.99,West,264,2.0,7.0,54,0.02,,---,0.22,VWS V13.01,2013-02-23 21:58:00,
2013-02-23 16:03:00,46.3,30.6,29.99,West,277,0.0,7.0,54,0.02,,---,0.22,VWS V13.01,2013-02-23 22:03:00,
2013-02-23 16:08:00,46.3,29.6,29.99,West,274,3.0,6.0,52,0.01,,---,0.22,VWS V13.01,2013-02-23 22:08:00,
2013-02-23 16:13:00,45.8,29.2,29.98,West,280,1.0,6.0,52,0.01,,---,0.22,VWS V13.01,2013-02-23 22:13:00,
2013-02-23 16:18:00,45.9,30.2,29.98,NW,309,0.0,6.0,54,0.01,,---,0.22,VWS V13.01,2013-02-23 22:18:00,
2013-02-23 16:23:00,46.1,29.5,29.98,NW,304,0.0,6.0,52,0.01,,---,0.22,VWS V13.01,2013-02-23 22:23:00,
2013-02-23 16:28:00,46.3,30.6,29.99,WNW,294,0.0,6.0,54,0.01,,---,0.22,VWS V13.01,2013-02-23 22:28:00,
2013-02-23 16:33:00,46.1,29.9,29.99,NNW,329,0.0,6.0,53,0.01,,---,0.22,VWS V13.01,2013-02-23 22:33:00,
2013-02-23 16:38:00,45.8,29.7,29.99,NNW,328,0.0,0.0,53,0.00,,---,0.22,VWS V13.01,2013-02-23 22:38:00,
2013-02-23 16:43:00,45.9,30.2,29.99,NNW,331,0.0,5.0,54,0.00,,---,0.22,VWS V13.01,2013-02-23 22:43:00,
2013-02-23 16:48:00,45.8,30.6,29.98,WNW,296,0.0,5.0,55,0.00,,---,0.22,VWS V13.01,2013-02-23 22:48:00,
2013-02-23 16:53:00,45.8,29.7,29.98,NW,304,0.0,5.0,53,0.00,,---,0.22,VWS V13.01,2013-02-23 22:53:00,
2013-02-23 16:58:00,45.7,29.6,29.98,WNW,301,0.0,5.0,53,0.00,,---,0.22,VWS V13.01,2013-02-23 22:58:00,
2013-02-23 17:03:00,45.8,30.1,29.98,WNW,300,0.0,5.0,54,0.00,,---,0.22,VWS V13.01,2013-02-23 23:03:00,
2013-02-23 17:08:00,45.9,29.8,29.97,WNW,301,0.0,0.0,53,0.00,,---,0.22,VWS V13.01,2013-02-23 23:08:00,
2013-02-23 17:13:00,45.4,30.2,29.98,WNW,300,0.0,0.0,55,0.00,,---,0.22,VWS V13.01,2013-02-23 23:13:00,
2013-02-23 17:18:00,45.1,30.4,29.98,WNW,301,0.0,0.0,56,0.00,,---,0.22,VWS V13.01,2013-02-23 23:18:00,
2013-02-23 17:23:00,45.0,29.8,29.97,WNW,301,0.0,0.0,55,0.00,,---,0.22,VWS V13.01,2013-02-23 23:23:00,
2013-02-23 17:28:00,44.9,30.2,29.97,WNW,301,0.0,0.0,56,0.00,,---,0.22,VWS V13.01,2013-02-23 23:28:00,
2013-02-23 17:34:00,44.4,30.6,29.97,WNW,301,0.0,0.0,58,0.00,,---,0.22,VWS V13.01,2013-02-23 23:34:00,
2013-02-23 17:38:00,44.1,30.7,29.97,WNW,301,0.0,0.0,59,0.00,,---,0.22,VWS V13.01,2013-02-23 23:38:00,
2013-02-23 17:44:00,43.7,30.7,29.97,WNW,301,0.0,0.0,60,0.00,,---,0.22,VWS V13.01,2013-02-23 23:44:00,
2013-02-23 17:49:00,43.2,31.1,29.97,WNW,301,0.0,0.0,62,0.00,,---,0.22,VWS V13.01,2013-02-23 23:49:00,
2013-02-23 17:54:00,43.1,31.4,29.98,WNW,301,0.0,0.0,63,0.00,,---,0.22,VWS V13.01,2013-02-23 23:54:00,
2013-02-23 17:59:00,42.7,31.0,29.98,WNW,300,0.0,0.0,63,0.00,,---,0.22,VWS V13.01,2013-02-23 23:59:00,
2013-02-23 18:04:00,42.3,30.6,29.98,WNW,300,0.0,0.0,63,0.00,,---,0.22,VWS V13.01,2013-02-24 00:04:00,
2013-02-23 18:09:00,41.9,30.6,29.98,WNW,301,0.0,0.0,64,0.00,,---,0.22,VWS V13.01,2013-02-24 00:09:00,
2013-02-23 18:14:00,41.5,31.0,29.98,WNW,300,0.0,0.0,66,0.00,,---,0.22,VWS V13.01,2013-02-24 00:14:00,
2013-02-23 18:19:00,41.3,30.8,29.99,WNW,301,0.0,0.0,66,0.00,,---,0.22,VWS V13.01,2013-02-24 00:19:00,
2013-02-23 18:24:00,40.9,30.4,29.99,WNW,300,0.0,0.0,66,0.00,,---,0.22,VWS V13.01,2013-02-24 00:24:00,
2013-02-23 18:29:00,40.6,31.2,30.00,WNW,301,0.0,0.0,69,0.00,,---,0.22,VWS V13.01,2013-02-24 00:29:00,
2013-02-23 18:34:00,40.2,30.9,30.00,WNW,300,0.0,0.0,69,0.00,,---,0.22,VWS V13.01,2013-02-24 00:34:00,
2013-02-23 18:39:00,39.9,30.9,30.01,WNW,300,0.0,0.0,70,0.00,,---,0.22,VWS V13.01,2013-02-24 00:39:00,
2013-02-23 18:44:00,39.8,30.8,30.01,WNW,300,0.0,0.0,70,0.00,,---,0.22,VWS V13.01,2013-02-24 00:44:00,
2013-02-23 18:49:00,39.7,30.7,30.01,WNW,301,0.0,1.0,70,0.00,,---,0.22,VWS V13.01,2013-02-24 00:49:00,
2013-02-23 18:54:00,40.0,30.7,30.01,WNW,301,0.0,1.0,69,0.00,,---,0.22,VWS V13.01,2013-02-24 00:54:00,
2013-02-23 18:59:00,40.5,30.8,30.01,WNW,300,0.0,1.0,68,0.00,,---,0.22,VWS V13.01,2013-02-24 00:59:00,
2013-02-23 19:04:00,40.9,30.8,30.01,WNW,301,0.0,1.0,67,0.00,,---,0.22,VWS V13.01,2013-02-24 01:04:00,
2013-02-23 19:09:00,40.9,30.4,30.01,WNW,301,0.0,0.0,66,0.00,,---,0.22,VWS V13.01,2013-02-24 01:09:00,
2013-02-23 19:14:00,40.9,30.1,30.01,WNW,301,0.0,0.0,65,0.00,,---,0.22,VWS V13.01,2013-02-24 01:14:00,
2013-02-23 19:19:00,40.8,30.0,30.01,WNW,301,0.0,0.0,65,0.00,,---,0.22,VWS V13.01,2013-02-24 01:19:00,
2013-02-23 19:24:00,40.6,30.5,30.01,WNW,300,0.0,0.0,67,0.00,,---,0.22,VWS V13.01,2013-02-24 01:24:00,
2013-02-23 19:29:00,40.2,30.5,30.01,WNW,301,0.0,0.0,68,0.00,,---,0.22,VWS V13.01,2013-02-24 01:29:00,
2013-02-23 19:34:00,39.9,30.2,30.01,WNW,301,0.0,0.0,68,0.00,,---,0.22,VWS V13.01,2013-02-24 01:34:00,
2013-02-23 19:39:00,39.6,30.6,30.02,WNW,301,0.0,0.0,70,0.00,,---,0.22,VWS V13.01,2013-02-24 01:39:00,
2013-02-23 19:44:00,39.3,30.4,30.02,WNW,301,0.0,0.0,70,0.00,,---,0.22,VWS V13.01,2013-02-24 01:44:00,
2013-02-23 19:49:00,39.2,30.6,30.02,WNW,300,0.0,0.0,71,0.00,,---,0.22,VWS V13.01,2013-02-24 01:49:00,
2013-02-23 19:54:00,39.5,30.2,30.02,WNW,301,0.0,0.0,69,0.00,,---,0.22,VWS V13.01,2013-02-24 01:54:00,
2013-02-23 19:59:00,39.5,29.8,30.02,WNW,300,0.0,0.0,68,0.00,,---,0.22,VWS V13.01,2013-02-24 01:59:00,
2013-02-23 20:04:00,39.8,29.8,30.03,WNW,300,0.0,0.0,67,0.00,,---,0.22,VWS V13.01,2013-02-24 02:04:00,
2013-02-23 20:09:00,39.6,29.6,30.02,WNW,301,0.0,0.0,67,0.00,,---,0.22,VWS V13.01,2013-02-24 02:09:00,
2013-02-23 20:14:00,39.4,30.1,30.02,WNW,300,0.0,1.0,69,0.00,,---,0.22,VWS V13.01,2013-02-24 02:14:00,
2013-02-23 20:19:00,39.5,30.2,30.03,WNW,301,0.0,1.0,69,0.00,,---,0.22,VWS V13.01,2013-02-24 02:19:00,
2013-02-23 20:24:00,39.2,30.2,30.03,WNW,301,0.0,1.0,70,0.00,,---,0.22,VWS V13.01,2013-02-24 02:24:00,
2013-02-23 20:29:00,39.1,30.9,30.03,WNW,300,0.0,1.0,72,0.00,,---,0.22,VWS V13.01,2013-02-24 02:29:00,
2013-02-23 20:34:00,39.2,32.0,30.03,WNW,301,0.0,1.0,75,0.00,,---,0.22,VWS V13.01,2013-02-24 02:34:00,
2013-02-23 20:39:00,38.9,32.0,30.03,WNW,300,0.0,0.0,76,0.00,,---,0.22,VWS V13.01,2013-02-24 02:39:00,
2013-02-23 20:45:00,38.7,31.8,30.03,WNW,301,0.0,0.0,76,0.00,,---,0.22,VWS V13.01,2013-02-24 02:45:00,
2013-02-23 20:50:00,38.5,31.9,30.03,WNW,300,0.0,0.0,77,0.00,,---,0.22,VWS V13.01,2013-02-24 02:50:00,
2013-02-23 20:55:00,38.3,32.4,30.03,WNW,301,0.0,0.0,79,0.00,,---,0.22,VWS V13.01,2013-02-24 02:55:00,
2013-02-23 21:00:00,38.3,32.4,30.03,WNW,300,0.0,0.0,79,0.00,,---,0.22,VWS V13.01,2013-02-24 03:00:00,
2013-02-23 21:05:00,38.2,32.3,30.03,WNW,300,0.0,0.0,79,0.00,,---,0.22,VWS V13.01,2013-02-24 03:05:00,
2013-02-23 21:10:00,37.8,31.9,30.03,WNW,301,0.0,0.0,79,0.00,,---,0.22,VWS V13.01,2013-02-24 03:10:00,
2013-02-23 21:15:00,37.6,31.7,30.02,WNW,301,0.0,0.0,79,0.00,,---,0.22,VWS V13.01,2013-02-24 03:15:00,
2013-02-23 21:20:00,37.5,31.6,30.02,WNW,301,0.0,0.0,79,0.00,,---,0.22,VWS V13.01,2013-02-24 03:20:00,
2013-02-23 21:25:00,37.4,31.8,30.02,NNE,14,0.0,3.0,80,0.00,,---,0.22,VWS V13.01,2013-02-24 03:25:00,
2013-02-23 21:30:00,37.4,31.8,30.02,NNE,14,0.0,3.0,80,0.00,,---,0.22,VWS V13.01,2013-02-24 03:30:00,
2013-02-23 21:35:00,37.5,31.9,30.02,NNE,14,0.0,3.0,80,0.00,,---,0.22,VWS V13.01,2013-02-24 03:35:00,
2013-02-23 21:40:00,37.1,31.8,30.03,NNE,14,0.0,0.0,81,0.00,,---,0.22,VWS V13.01,2013-02-24 03:40:00,
2013-02-23 21:45:00,37.0,32.0,30.03,NNE,14,0.0,0.0,82,0.00,,---,0.22,VWS V13.01,2013-02-24 03:45:00,
2013-02-23 21:50:00,36.8,31.8,30.02,NNE,14,0.0,0.0,82,0.00,,---,0.22,VWS V13.01,2013-02-24 03:50:00,
2013-02-23 21:55:00,36.6,31.3,30.02,NNE,14,0.0,0.0,81,0.00,,---,0.22,VWS V13.01,2013-02-24 03:55:00,
2013-02-23 22:00:00,36.6,31.0,30.02,NNE,14,0.0,0.0,80,0.00,,---,0.22,VWS V13.01,2013-02-24 04:00:00,
2013-02-23 22:05:00,36.6,30.7,30.02,NNE,14,3.0,3.0,79,0.00,,---,0.22,VWS V13.01,2013-02-24 04:05:00,
2013-02-23 22:10:00,37.1,30.6,30.02,NE,40,0.0,5.0,77,0.00,,---,0.22,VWS V13.01,2013-02-24 04:10:00,
2013-02-23 22:15:00,37.4,30.2,30.02,NE,40,0.0,5.0,75,0.00,,---,0.22,VWS V13.01,2013-02-24 04:15:00,
2013-02-23 22:20:00,37.7,30.2,30.02,NE,40,0.0,5.0,74,0.00,,---,0.22,VWS V13.01,2013-02-24 04:20:00,
2013-02-23 22:26:00,37.4,29.5,30.02,NE,40,0.0,5.0,73,0.00,,---,0.22,VWS V13.01,2013-02-24 04:26:00,
2013-02-23 22:31:00,37.3,29.8,30.02,NE,40,0.0,5.0,74,0.00,,---,0.22,VWS V13.01,2013-02-24 04:31:00,
2013-02-23 22:36:00,37.0,29.5,30.02,NE,40,0.0,0.0,74,0.00,,---,0.22,VWS V13.01,2013-02-24 04:36:00,
2013-02-23 22:41:00,36.7,29.2,30.02,NE,40,0.0,0.0,74,0.00,,---,0.22,VWS V13.01,2013-02-24 04:41:00,
2013-02-23 22:46:00,36.6,29.1,30.02,NE,40,0.0,2.0,74,0.00,,---,0.22,VWS V13.01,2013-02-24 04:46:00,
2013-02-23 22:51:00,36.7,29.2,30.02,NE,37,2.0,5.0,74,0.00,,---,0.22,VWS V13.01,2013-02-24 04:51:00,
2013-02-23 22:56:00,36.8,29.3,30.02,NE,38,0.0,5.0,74,0.00,,---,0.22,VWS V13.01,2013-02-24 04:56:00,
2013-02-23 23:00:00,36.9,29.4,30.02,NE,38,0.0,5.0,74,0.00,,---,0.22,VWS V13.01,2013-02-24 05:00:00,
2013-02-23 23:01:00,36.9,29.4,30.02,NE,38,0.0,5.0,74,0.00,,---,0.22,VWS V13.01,2013-02-24 05:01:00,
2013-02-23 23:06:00,36.9,29.4,30.02,NE,38,0.0,0.0,74,0.00,,---,0.22,VWS V13.01,2013-02-24 05:06:00,
2013-02-23 23:11:00,36.9,29.4,30.02,NE,38,0.0,0.0,74,0.00,,---,0.22,VWS V13.01,2013-02-24 05:11:00,
2013-02-23 23:16:00,36.9,29.7,30.02,NE,38,0.0,0.0,75,0.00,,---,0.22,VWS V13.01,2013-02-24 05:16:00,
2013-02-23 23:21:00,36.8,29.6,30.02,NE,38,0.0,0.0,75,0.00,,---,0.22,VWS V13.01,2013-02-24 05:21:00,
2013-02-23 23:26:00,36.8,29.6,30.02,NE,38,0.0,0.0,75,0.00,,---,0.22,VWS V13.01,2013-02-24 05:26:00,
2013-02-23 23:31:00,36.7,29.9,30.02,NE,38,0.0,0.0,76,0.00,,---,0.22,VWS V13.01,2013-02-24 05:31:00,
2013-02-23 23:36:00,36.6,30.1,30.02,SSE,153,0.0,0.0,77,0.00,,---,0.22,VWS V13.01,2013-02-24 05:36:00,
2013-02-23 23:41:00,36.5,30.3,30.02,SSE,153,0.0,2.0,78,0.00,,---,0.22,VWS V13.01,2013-02-24 05:41:00,
2013-02-23 23:46:00,36.4,30.2,30.02,SSE,153,0.0,2.0,78,0.00,,---,0.22,VWS V13.01,2013-02-24 05:46:00,
2013-02-23 23:51:00,36.3,30.4,30.03,SSE,153,0.0,2.0,79,0.00,,---,0.22,VWS V13.01,2013-02-24 05:51:00,
2013-02-23 23:56:00,36.2,30.3,30.03,SSE,152,0.0,2.0,79,0.00,,---,0.22,VWS V13.01,2013-02-24 05:56:00,